shoulder
new_line
new_line
first
second
third
Al di la della Luna; Beyond the Moon; Astrophotography; Astrofotografia; Danilo Pivato
 
 
         
         
2009

Orbital Elements

Epoch 2009 Jan. 9.0 TT = JDT 2454840.5
T 2009 Jan. 10.64007 TT                                                        MPC
q   1.2122575               (2000.0)                     P                     Q
z  +0.0000162      Peri.  136.86208     -0.92920778        -0.36941174
 +/-0.000000       Node   338.53479     -0.34631428       +0.86061128
e   0.9999804      Incl.    178.37359     -0.12899351       +0.35054699
 
         
         
2009.02.16
2009.02.19
2009.02.25
2009.02.27
2009.03.13
         
         
       
       
         
         
         

 

       
 
Since: 01/01/2004
 
       
 
Since: 01/11/2010